Weather Roundup
Issued by NWS Corpus Christi, TX

Home | Current Version | Previous Version | Text Only | Print | Product List | Glossary On
Versions: 1 2 3 4 5 6 7 8 9 10 11 12 13 14 15 16 17 18 19 20 21 22 23 24 25 26 27 28 29 30 31 32 33 34 35 36 37 38 39 40 41 42 43 44 45 46 47 48 49 50
000
ASUS44 KCRP 180410
HRRCRP

SOUTH TEXAS REGIONAL WEATHER ROUNDUP
NATIONAL WEATHER SERVICE CORPUS CHRISTI TX
1000 PM CST SAT FEB 17 2018


TXZ229>244-180500-
...CORPUS CHRISTI AREA OBSERVATIONS...

CITY           SKY/WX    TMP DP  RH WIND       PRES   REMARKS
CORPUS CHRISTI FAIR      70  69  97 SE13      30.08R
NAS CORPUS CHR FAIR      70  69  97 SE15      30.07S
ROCKPORT       CLOUDY    67  66  97 E6        30.10R FOG
KINGSVILLE ARP FAIR      71  71 100 SE7       30.08R
KINGSVILLE NAS CLEAR     70  68  93 SE13      30.07R
ALICE          MOCLDY    69  66  90 SE7       30.07R
$$

...VICTORIA AREA OBSERVATIONS...

CITY           SKY/WX    TMP DP  RH WIND       PRES   REMARKS
PORT LAVACA    CLOUDY    67  65  95 NE10      30.12S
VICTORIA       CLOUDY    61  57  87 NE7       30.13S
BEEVILLE       CLOUDY    69  62  79 E6        30.11R
PLEASANTON     CLOUDY    61  53  73 E7        30.13S
SAN ANTONIO    PTCLDY    56  49  77 NE8       30.15S
$$

...LAREDO AREA OBSERVATIONS...

CITY           SKY/WX    TMP DP  RH WIND       PRES   REMARKS
LAREDO         CLEAR     73  62  68 NE10      30.05S
COTULLA        CLEAR     65  57  75 E12       30.09
DEL RIO        PTCLDY    69  62  78 E8        30.07R
MCALLEN        FAIR      73  68  84 SE9       30.06R
HEBBRONVILLE   MOCLDY    71  65  80 SE6       30.08S
$$

...OTHER TEXAS OBSERVATIONS...

CITY           SKY/WX    TMP DP  RH WIND       PRES   REMARKS
BROWNSVILLE    FAIR      72  69  90 SE14      30.07R
HOUSTON        CLOUDY    60  54  80 NE5       30.15F
COL. STATION   CLOUDY    53  52  96 N7        30.17S
AUSTIN         CLEAR     47  47 100 E3        30.17R
WACO           PTCLDY    45  41  86 NE3       30.20R
FORT WORTH     CLOUDY    53  44  71 E3        30.18S
WICHITA FALLS  CLOUDY    47  27  45 N6        30.20R
LUBBOCK        CLOUDY    43  29  57 SE6       30.19F
EL PASO        MOCLDY    53  48  83 CALM      30.15S
$$

...MARINE OBSERVATIONS...

STATION/POSITION TIME  SKY/WX   TEMP    WIND        PRES    VSBY  WAVE   SWELL
                                AIR SEA DIR/SP/G                  HT/PER HT/PER
                 (UTC)          (F)     (DEG/KT/KT) (MB)    (MI)  (FT/S) (FT/S)
PORT ARANSAS     NOT AVBL
BUOY 90 E PORT A 0350            72 72  110/  8/ 10 1019.8S         3/ 5   3/ 5
BUOY 200 E PT IS 0350            73 73  110/  6/  8 1020.5R         3/ 6   3/ 6
BUOY 15 E GALVES 0250            64 62  180/  8/  8 1020.4          2/ 5   2/ 5
$$




USA.gov is the U.S. government's official web portal to all federal, state and local government web resources and services.